[[{"header":{"parameterUnit":"m.s-1","parameterCategory":1,"la1":30.2991,"la2":30.254,"lo1":-89.0895,"lo2":-89.0444,"dy":0.0017,"dx":0.0017,"nx":28,"ny":28,"refTime":"2025-04-08T21:00:00:Z","depth":0,"parameterNumber":2,"parameterNumberName":"U-component_of_WINDS"},"data":[0,0,0,0,0,0,0,0,0,0,0,0,0,0,0,0,0,0,0,0,0,0,0,0,0,0,0,0,0,0,0,0,0,0,0,0,0,0,0,0,0,0,0,0,0,0,0,0,0,0,0,0,0,0,0,0,0,0,3.1807,3.1808,0,3.1876,3.1877,3.1878,3.1808,3.1806,3.1803,3.18,3.1866,3.1871,3.1875,0,0,0,0,0,0,0,0,0,0,0,0,0,3.1609,3.1613,3.1807,3.1808,3.1809,3.1876,3.1877,3.1878,3.1809,3.1806,3.1802,3.1799,3.1865,3.187,3.1875,0,0,0,0,0,0,0,0,0,0,0,0,0,3.1688,3.1614,3.1807,3.1783,3.1781,3.1876,3.1877,3.1878,3.181,3.1805,3.1801,3.1798,3.1863,3.187,3.1876,3.1997,0,0,3.1896,3.1898,0,0,0,0,0,0,0,0,3.1684,3.1695,3.1785,3.1784,3.1783,3.183,3.1831,3.1918,3.1811,3.1799,3.18,3.1796,3.1857,3.1864,3.1886,3.2,3.2003,3.1896,3.19,3.1903,3.1905,0,0,0,0,0,0,0,3.1678,3.1692,3.1834,3.1787,3.1785,3.1766,3.1773,3.1848,3.185,3.1799,3.1794,3.1804,3.1856,3.188,3.1887,3.2004,3.1896,3.1902,3.1906,3.1908,3.2218,3.2222,0,0,0,0,0,0,3.1676,3.1688,3.1832,3.1836,3.1722,3.1773,3.1781,3.1819,3.1849,3.185,3.1807,3.18,3.1871,3.1879,3.1889,3.2029,3.1903,3.1909,3.1913,3.2213,3.2219,3.2223,0,0,0,0,0,0,3.1672,3.169,3.1829,3.1761,3.1777,3.1781,3.1824,3.1822,3.1846,3.1855,3.1854,3.1832,3.1868,3.188,3.197,3.2031,3.1912,3.1918,3.2208,3.2215,3.2221,3.2314,0,0,0,0,0,0,3.1667,3.1689,3.1736,3.1763,3.1781,3.1912,3.1828,3.1827,3.1858,3.185,3.1878,3.1878,3.1865,3.1961,3.1977,3.2038,3.1923,3.2203,3.2211,3.2219,3.2305,3.2323,3.2338,0,0,0,0,0,3.166,3.1759,3.1739,3.1757,3.1841,3.1915,3.1926,3.1911,3.1863,3.191,3.1915,3.1877,3.2023,3.1971,3.1988,3.2052,3.2199,3.2209,3.2218,3.2298,3.232,3.2338,0,0,0,0,0,0,3.1739,3.1762,3.174,3.1851,3.1882,3.1904,3.1962,3.1934,3.1978,3.1968,3.1946,3.1952,3.2048,3.2059,3.2001,3.2169,3.2103,3.2116,3.2157,3.2178,3.2194,3.2187,3.1928,0,0,0,0,0,3.1769,3.183,3.1846,3.1943,3.196,3.1959,3.199,3.1976,3.2006,3.2018,3.203,3.2059,3.2111,3.2146,3.2194,3.2308,3.2311,3.236,3.2376,3.2389,3.24,3.2458,3.2479,3.2256,3.2256,3.2255,0,0,3.1832,3.1853,3.1892,3.1959,3.1981,3.2041,3.197,3.2037,3.2081,3.2028,3.2113,3.2124,3.2154,3.2256,3.2302,3.2269,3.2463,3.2402,3.2413,3.2416,3.247,3.2491,3.251,3.2262,3.2261,3.226,0,0,3.1977,3.2001,3.2082,3.2106,3.214,3.2139,3.2159,3.2185,3.2189,3.2276,3.2236,3.2287,3.2378,3.2401,3.2424,3.2577,3.2543,3.2594,3.2677,3.2734,3.2751,3.2766,3.2817,3.2836,3.2606,3.2606,3.2606,0,3.205,3.2142,3.2127,3.2197,3.2226,3.2183,3.2263,3.2286,3.2335,3.2355,3.2318,3.2429,3.2448,3.2552,3.259,3.2612,3.263,3.2589,3.275,3.2765,3.2779,3.2828,3.2847,3.2611,3.2611,3.261,3.261,0,3.2228,3.2292,3.2354,3.2402,3.2439,3.2514,3.2508,3.2546,3.2529,3.2531,3.2617,3.2638,3.2688,3.2713,3.2696,3.2815,3.2793,3.2754,3.2686,3.2807,3.2851,3.287,3.262,3.2618,3.2616,3.2614,0,0,3.2423,3.2462,3.2485,3.2505,3.254,3.2588,3.266,3.2711,3.2743,3.2778,3.2835,3.2913,3.2876,3.2903,3.2889,3.2939,3.3055,3.2893,3.2894,3.2919,3.3182,3.3209,3.3231,3.3034,3.3037,3.304,3.3178,0,3.2566,3.2692,3.268,3.2799,3.2856,3.2816,3.2878,3.2905,3.2909,3.2956,3.2959,3.3013,3.2963,3.2978,3.3026,3.3031,3.3107,3.3021,3.3083,3.3086,3.3073,3.3255,3.3284,3.3413,3.3196,3.3199,3.3201,0,3.2749,3.2791,3.2916,3.2941,3.2964,3.3021,3.3064,3.3112,3.314,3.3139,3.3169,3.3146,3.3216,3.315,3.3243,3.3185,3.3211,3.3217,3.3221,3.3223,3.3148,3.3258,3.3454,3.3472,3.323,3.3227,3.3225,0,3.2874,3.2962,3.3047,3.3066,3.3098,3.3138,3.3153,3.3178,3.3209,3.3247,3.3266,3.3312,3.3336,3.3372,3.336,3.3314,3.3456,3.3389,3.3453,3.3454,3.3482,3.348,3.3681,3.3505,3.3505,3.3504,3.3504,0,3.3032,3.3109,3.3103,3.3155,3.3239,3.3225,3.3308,3.3317,3.334,3.3391,3.336,3.3408,3.3392,3.3439,3.3432,3.3508,3.3521,3.3519,3.3515,3.352,3.352,3.3533,3.3523,3.351,3.3508,3.3507,3.3507,0,3.3184,3.3184,3.3273,3.3297,3.3304,3.3365,3.3383,3.3431,3.3433,3.3498,3.3512,3.3514,3.3567,3.3561,3.3621,3.3615,3.371,3.3697,3.37,3.3696,3.3759,3.3752,3.3973,3.4,3.381,3.3812,3.3814,0,3.3284,3.3342,3.3372,3.3405,3.3422,3.3476,3.3507,3.3494,3.3528,3.3565,3.3607,3.3658,3.3698,3.3785,3.379,3.3835,3.3821,3.3895,3.3827,3.3829,3.3817,3.3813,3.3817,3.3908,3.391,3.3912,3.3913,0,3.3459,3.3456,3.3503,3.355,3.3588,3.3624,3.3656,3.3685,3.3675,3.3714,3.3769,3.38,3.3861,3.391,3.3953,3.3965,3.3937,3.3935,3.3952,3.3955,3.3953,3.3951,3.3733,3.3929,3.3928,3.3926,3.3925,3.3925,3.3585,3.3634,3.3662,3.3715,3.3738,3.3769,3.3814,3.3822,3.3868,3.3918,3.3907,3.3969,3.3994,3.4048,3.4065,3.4111,3.4084,3.4109,3.4114,3.412,3.4125,3.3949,3.4119,3.4119,3.4118,3.4118,3.4118,0,3.3756,3.3772,3.3821,3.3867,3.3908,3.3881,3.3915,3.395,3.4005,3.4032,3.4072,3.4134,3.4182,3.4191,3.4237,3.4271,3.4259,3.4283,3.4279,3.4281,3.4149,3.4129,3.4292,3.4292,3.4292,3.4292,3.4292,3.4292,3.3849,3.3929,3.3929,3.402,3.4035,3.4096,3.4117,3.4144,3.4165,3.4236,3.4277,3.4283,3.4302,3.4349,3.4391,3.4392,3.4408,3.4437,3.4433,3.4309,3.4291,3.4274,3.4254,3.4442,3.4442,3.456,3.4561,3.4562]},{"header":{"parameterUnit":"m.s-1","parameterCategory":1,"la1":30.2991,"la2":30.254,"lo1":-89.0895,"lo2":-89.0444,"dy":0.0017,"dx":0.0017,"nx":28,"ny":28,"refTime":"2025-04-08T21:00:00:Z","depth":0,"parameterNumber":3,"parameterNumberName":"V-component_of_WINDS"},"data":[0,0,0,0,0,0,0,0,0,0,0,0,0,0,0,0,0,0,0,0,0,0,0,0,0,0,0,0,0,0,0,0,0,0,0,0,0,0,0,0,0,0,0,0,0,0,0,0,0,0,0,0,0,0,0,0,0,0,3.1201,3.1202,0,3.1238,3.1238,3.1238,3.1175,3.1173,3.1171,3.1169,3.1205,3.1208,3.1211,0,0,0,0,0,0,0,0,0,0,0,0,0,3.1075,3.1078,3.1201,3.1202,3.1202,3.1238,3.1238,3.1239,3.1176,3.1173,3.117,3.1168,3.1204,3.1208,3.1211,0,0,0,0,0,0,0,0,0,0,0,0,0,3.1123,3.1079,3.1201,3.1175,3.1173,3.1237,3.1238,3.1239,3.1176,3.1173,3.117,3.1167,3.1203,3.1208,3.1212,3.1303,0,0,3.1225,3.1227,0,0,0,0,0,0,0,0,3.112,3.1127,3.1179,3.1177,3.1175,3.1199,3.1207,3.126,3.1177,3.1175,3.1169,3.1165,3.1206,3.121,3.1223,3.1305,3.1307,3.1226,3.1229,3.123,3.1232,0,0,0,0,0,0,0,3.1117,3.1125,3.1216,3.1179,3.1177,3.1161,3.1164,3.1217,3.1208,3.1175,3.117,3.1176,3.1204,3.1219,3.1224,3.1307,3.1226,3.123,3.1232,3.1234,3.1462,3.1465,0,0,0,0,0,0,3.1117,3.1123,3.1215,3.1217,3.1139,3.1166,3.1169,3.1194,3.1207,3.1206,3.1178,3.1172,3.1213,3.1219,3.1225,3.133,3.123,3.1235,3.1237,3.1458,3.1463,3.1466,0,0,0,0,0,0,3.1115,3.1126,3.1213,3.1169,3.1179,3.1171,3.12,3.1197,3.1212,3.121,3.1207,3.1196,3.1211,3.1219,3.1284,3.1331,3.1237,3.1241,3.1454,3.146,3.1464,3.1544,0,0,0,0,0,0,3.1111,3.1125,3.1161,3.117,3.1181,3.1272,3.1203,3.12,3.122,3.1213,3.1225,3.1224,3.1209,3.1277,3.1288,3.1335,3.1244,3.145,3.1457,3.1463,3.1537,3.1551,3.1563,0,0,0,0,0,3.1107,3.1182,3.1163,3.1174,3.1226,3.1275,3.1281,3.1262,3.1224,3.1259,3.1257,3.1224,3.1324,3.1284,3.1296,3.1345,3.1447,3.1455,3.1462,3.1531,3.1548,3.1562,0,0,0,0,0,0,3.1179,3.1183,3.1162,3.1243,3.1259,3.1264,3.1308,3.1282,3.1309,3.1302,3.1276,3.128,3.1349,3.1354,3.131,3.1433,3.1379,3.1389,3.1427,3.1443,3.1456,3.1453,3.1248,0,0,0,0,0,3.1205,3.1245,3.1246,3.1317,3.1326,3.1316,3.1337,3.1321,3.1337,3.1343,3.1346,3.1362,3.1397,3.1421,3.1453,3.1537,3.1538,3.1576,3.159,3.16,3.1609,3.1651,3.1668,3.1491,3.1491,3.1491,0,0,3.1258,3.1265,3.1292,3.1332,3.1343,3.1384,3.1322,3.1369,3.1399,3.135,3.1411,3.1414,3.143,3.1504,3.1537,3.151,3.1658,3.161,3.1619,3.1622,3.1661,3.1677,3.1692,3.1496,3.1495,3.1495,0,0,3.1375,3.1385,3.1444,3.1456,3.1472,3.1464,3.1478,3.1487,3.1487,3.1548,3.1511,3.1546,3.1607,3.1619,3.1634,3.1752,3.1722,3.1763,3.1831,3.1873,3.1886,3.1899,3.1939,3.1954,3.1772,3.1773,3.1773,0,3.1438,3.15,3.1478,3.1526,3.1544,3.1501,3.1559,3.1571,3.1598,3.1611,3.158,3.1654,3.1662,3.1737,3.1766,3.178,3.1794,3.1762,3.1886,3.1898,3.1909,3.1947,3.1963,3.1777,3.1777,3.1776,3.1776,0,3.1576,3.1619,3.1664,3.1689,3.1712,3.1766,3.1751,3.1776,3.1757,3.1752,3.1813,3.1821,3.1853,3.1869,3.1852,3.1942,3.1924,3.1891,3.1836,3.1931,3.1966,3.1981,3.1784,3.1783,3.1781,3.178,0,0,3.1741,3.1751,3.1768,3.1778,3.1792,3.1824,3.1875,3.1905,3.1926,3.1946,3.1986,3.2038,3.2006,3.2022,3.2006,3.2042,3.2133,3.2004,3.2004,3.2026,3.2229,3.2253,3.227,3.2113,3.2116,3.2118,3.2227,0,3.1855,3.1942,3.1922,3.2008,3.2045,3.2004,3.2047,3.206,3.2056,3.2087,3.2082,3.2118,3.2075,3.2084,3.2118,3.2114,3.2173,3.2107,3.2149,3.2151,3.2145,3.2289,3.2315,3.2417,3.2241,3.2243,3.2245,0,3.2001,3.2024,3.2113,3.2118,3.2133,3.2173,3.2197,3.2228,3.224,3.2235,3.2252,3.2227,3.2275,3.2221,3.2286,3.2241,3.2257,3.2258,3.2261,3.2264,3.2203,3.2293,3.245,3.2465,3.2267,3.2265,3.2263,0,3.2109,3.2163,3.2222,3.2232,3.224,3.2269,3.2273,3.2283,3.2301,3.2323,3.2334,3.2362,3.2376,3.2397,3.238,3.2342,3.2447,3.2392,3.2443,3.2443,3.2466,3.2464,3.2625,3.2479,3.2479,3.2479,3.2478,0,3.2239,3.2294,3.2271,3.2307,3.2367,3.2343,3.2403,3.2403,3.2411,3.2445,3.2412,3.2445,3.2421,3.2451,3.2438,3.2493,3.25,3.2496,3.2491,3.2498,3.2498,3.2508,3.2499,3.2483,3.2482,3.2481,3.248,0,3.237,3.2357,3.2418,3.242,3.2422,3.2466,3.2467,3.25,3.2492,3.2536,3.2545,3.2534,3.2568,3.2553,3.2589,3.258,3.2649,3.2637,3.2645,3.2641,3.2692,3.2687,3.2863,3.2884,3.2726,3.2728,3.2729,0,3.2453,3.2494,3.25,3.252,3.2526,3.256,3.2578,3.2556,3.2576,3.2592,3.2623,3.2654,3.2677,3.2733,3.2728,3.2754,3.2741,3.2801,3.2745,3.2749,3.2739,3.2736,3.2739,3.2812,3.2814,3.2815,3.2816,0,3.26,3.2591,3.2618,3.2643,3.2665,3.2684,3.27,3.2718,3.2696,3.272,3.2754,3.2772,3.2808,3.2838,3.2861,3.2865,3.2837,3.2834,3.2847,3.2853,3.2856,3.2853,3.2674,3.283,3.2829,3.2828,3.2827,3.2826,3.2708,3.2742,3.275,3.2781,3.279,3.2805,3.2835,3.283,3.2858,3.2885,3.287,3.2909,3.2918,3.2946,3.2954,3.2983,3.2959,3.2978,3.2983,3.2988,3.2993,3.2852,3.2987,3.2987,3.2987,3.2986,3.2986,0,3.2852,3.2855,3.2883,3.2905,3.2929,3.29,3.2915,3.2936,3.2971,3.2982,3.3005,3.3043,3.3071,3.3068,3.3093,3.3118,3.3105,3.3125,3.3122,3.3123,3.3014,3.3,3.3135,3.3134,3.3134,3.3134,3.3134,3.3134,3.2929,3.2984,3.2975,3.3033,3.3035,3.3072,3.3083,3.3095,3.3104,3.3147,3.317,3.3167,3.3172,3.3197,3.3222,3.322,3.323,3.3255,3.3248,3.3146,3.3131,3.3117,3.3103,3.3257,3.3258,3.3354,3.3355,3.3355]}]]